Weather in Shchelkino

Russia / Republic of Crimea     45°25′43″N   35°49′30″E
temp.,
°C
wind,
m/s
gust,
m/s
humid.,
%
clouds,
%
prec.,
mm/h
press.,
hPa
HPBL,
m
28 february, sun
sun2800:00+5nnw7994100 2.8 1018424
03:00+5nnw6887100 3.3 1018375
06:00+5nnw91086100 0.1 1018561
09:00+4nw898579 0.1 1020726
12:00+4nw788595 0.3 1020636
15:00+5nw898598 0.4 1020792
18:00+4nnw679284 0.3 1021532
21:00+5nw677692 0.3 1022946
1 march, mon
mon100:00+4nw6783100 0.2 1023648
03:00+4nw557998 0.2 1023568
06:00+4wnw5583100 0.2 1024560
09:00+2wnw5596100 0.4 1026323
12:00+3nw228695 0.1 1026383
15:00+3nne228493 0.2 1027358
18:00+3nne338039 0.0 1027404
21:00+3n337624 0.0 1029477
2 march, tue
tue200:00+3nnw34770 0.0 1030354
03:00+4n446350 0.1 10301079
06:00+4nnw4464100 0.1 10301006
09:00+3nnw557481 0.1 1030558
12:00+3wnw566926 0.0 1030921
15:00+3wnw466626 0.0 1028620
18:00+4wsw477133 0.0 1026492
21:00+5w11137445 0.0 1026844
3 march, wed
wed300:00+4wsw1114776 0.0 1024701
03:00+5w1216818 0.0 1023583
06:00+5w10148477 0.0 1022543
09:00+5nw8108889 0.0 1023628
12:00+5nnw9118399 0.0 1024832
15:00+5nw687781 0.1 1024660
18:00+5nnw787133 0.0 1025727
21:00+5nnw567317 0.0 1027274
4 march, thu
thu400:00+5nnw34770 0.0 1028239
03:00+4n22730 0.0 1028214
06:00+4wnw22720 0.0 1027330
09:00+4sw22730 0.0 1027291
12:00+5wsw34670 0.0 1026290
15:00+6s23660 0.0 1025163
18:00+6s810730 0.0 1023290
21:00+5ssw810780 0.0 1022264